Tracking 19153 objects as of 26-Apr-2018
HD Live streaming from Space Station
objects crossing your sky now

TURKSAT 1C

Track TURKSAT 1C now!
TURKSAT 1C is classified as:


NORAD ID: 23949
Int'l Code: 1996-040B
Perigee: 35,789.0 km
Apogee: 35,804.9 km
Inclination: 7.6 °
Period: 1,436.3 minutes
Semi major axis: 42167 km
RCS: 2.5119 m2 (large)
Launch date: July 9, 1996
Source: Turkey (TURK)
Launch site: FRENCH GUIANA (FRGUI)

16 Ku-band transponders; radio and TV communications to Turkey and neighboring countries.
aabbcc
Your satellite tracking list
Your tracking list is empty




NASA's NSSDC Master Catalog

Two Line Element Set (TLE):
1 23949U 96040B   18115.81989466 -.00000368 +00000-0 +00000-0 0  9991
2 23949 007.6218 048.9797 0001892 091.5336 137.5742 01.00260406079851
Source of the keplerian elements: AFSPC